HINODE (SOLAR-B)

Last updated on Sun Apr 12 2026 00:03:41 GMT+0000 (Coordinated Universal Time)

1 29479U 06041A 26101.27764704 .00000518 00000+0 97509-4 0 9996 2 29479 98.0595 118.4087 0018507 137.1776 223.0874 14.68529264 45058
UTC large
Height (km)
Speed (km/s)
/
Latitude / Longitude
Inclination (degrees)
Orbital Period (minutes)
Azimuth
Elevation
Range (km)
Doppler Factor

Next 0 passes for location: London (51.5072 / 0.1276)

Sorry there are no passes over London.
HINODE (SOLAR-B)